Theta_e
292 289 288 288 289 289 286 283 283 285 287 286 286 287 291 291 285 285 283 282 283 283 282 282 282 282 281 282 282 282 283 283 283 282 280 280 280 281 280 281 283 283 283 283
289 288 290 291 289 287 284 283 283 285 286 286 285 285 289 291 287 287 287 283 283 283 280 282 281 281 281 281 282 282 282 282 283 282 281 281 280 280 280 281 280 281 282 281
288 290 291 290 286 285 283 282 282 283 284 283 281 281 282 287 288 288 287 287 285 283 281 281 280 280 280 280 281 282 282 282 282 281 281 280 280 278 277 277 278 279 281 281
289 290 289 285 286 286 282 285 283 282 280 277 282 278 280 285 286 285 287 284 284 283 282 282 281 279 279 280 281 281 281 281 282 281 279 277 276 275 276 277 277 278 279 279
289 286 285 285 286 286 285 284 282 281 279 276 277 274 278 279 283 287 287 286 285 283 282 281 281 281 280 281 280 280 280 280 280 279 278 276 276 276 276 276 276 276 277 279
288 287 287 287 285 285 286 282 280 277 276 272 278 277 277 278 282 284 284 283 283 281 281 281 281 281 280 280 280 279 279 278 279 278 277 275 274 274 274 274 274 275 276 277
286 285 284 287 284 285 283 282 277 274 271 276 275 273 282 284 284 285 285 282 282 280 280 280 280 280 279 279 279 279 278 277 277 276 275 274 273 273 272 273 273 273 274 275
283 283 285 286 286 284 281 282 278 270 270 277 273 275 282 284 284 280 279 279 281 279 280 280 281 280 279 279 278 278 277 275 275 274 274 273 273 273 273 273 273 272 273 274
283 283 284 285 284 284 281 279 282 276 264 269 278 279 282 284 282 281 279 280 280 278 279 280 280 280 278 278 278 277 275 275 274 273 273 272 271 271 271 271 272 272 273 274
288 284 282 281 282 280 281 283 277 277 271 265 276 277 281 286 284 285 279 279 279 277 278 279 280 279 278 278 277 275 274 273 273 273 271 271 270 270 270 270 270 271 272 272
288 287 282 281 280 280 277 278 277 279 276 272 268 280 283 285 286 286 282 281 279 278 278 279 279 279 278 277 275 274 273 272 272 271 271 270 270 270 270 269 270 270 271 271
287 285 282 283 278 278 280 281 281 278 275 273 273 281 283 286 286 284 282 281 278 278 278 279 279 277 276 275 274 273 272 271 271 270 270 269 269 269 268 268 269 270 270 270
287 283 281 281 279 279 277 280 281 280 277 275 274 280 282 282 282 280 280 280 278 277 276 277 277 277 276 274 273 271 270 270 270 269 268 268 267 267 267 268 268 269 269 269
293 285 282 281 282 281 277 279 280 282 278 280 280 283 288 289 290 292 285 278 278 277 277 277 277 276 275 274 272 270 269 269 268 267 266 266 267 267 267 267 267 267 267 266
289 285 286 286 288 280 280 281 281 278 281 279 283 283 287 289 291 292 293 287 278 276 276 277 277 275 273 272 270 269 267 267 267 266 266 266 266 266 266 266 266 266 265 265
283 283 285 284 286 282 281 285 285 280 281 281 283 283 291 293 294 292 292 286 279 276 277 277 277 276 274 273 269 270 267 267 267 265 266 266 265 265 264 264 264 263 263 263
280 281 275 280 281 279 277 282 286 287 287 284 279 285 290 290 290 290 289 282 280 278 277 277 276 276 274 272 271 266 266 266 265 266 264 263 264 262 262 262 262 261 261 262
280 280 282 280 274 273 285 289 285 285 287 288 288 289 291 291 292 282 284 283 279 278 277 277 276 272 270 268 267 266 266 265 265 264 262 262 262 261 261 260 259 260 261 262
288 283 280 278 278 282 284 283 281 280 284 289 286 289 290 290 280 286 281 282 281 278 278 277 273 270 268 266 266 265 265 264 263 262 261 261 260 258 258 256 258 259 261 260
288 287 284 281 276 274 283 286 281 282 280 291 290 289 288 281 280 287 281 278 277 277 275 271 270 268 266 265 265 265 264 262 261 261 260 260 259 256 256 257 257 260 259 261
279 281 279 281 279 282 288 277 281 277 283 287 291 290 289 282 287 281 277 275 274 273 270 269 268 266 266 265 264 263 262 261 260 260 259 258 258 256 256 257 258 258 259 260
282 279 279 279 278 277 287 279 282 289 293 289 284 284 284 284 277 275 275 272 270 269 269 267 266 265 265 264 264 262 261 260 259 258 257 255 254 254 258 256 256 258 258 259
283 286 285 285 283 288 287 292 293 293 293 290 283 282 284 280 277 275 273 271 270 269 268 268 265 263 263 263 262 262 260 259 257 253 252 250 254 256 257 255 257 257 259 260
288 292 287 287 289 289 287 290 294 295 291 292 283 281 281 279 276 275 272 271 269 269 267 266 264 262 260 261 260 259 258 257 251 251 254 256 256 255 257 258 259 258 259 260
290 290 288 288 290 292 293 294 293 288 285 283 281 281 281 280 277 275 273 270 270 268 266 266 265 263 260 259 257 257 255 253 253 254 256 255 254 253 256 258 257 260 262 265
292 290 287 286 292 292 292 295 296 291 286 284 282 279 281 280 277 275 273 271 269 267 266 265 264 262 260 259 257 254 252 251 250 254 254 254 254 254 256 256 256 262 265 266
Wind_Speed
3 3 7 8 7 4 4 4 8 6 5 4 11 14 22 9 11 15 12 14 17 19 8 9 9 8 7 6 7 5 2 2 1 1 2 3 4 4 3 3 5 6 5 6
3 9 6 4 4 5 4 3 9 9 1 6 11 17 17 17 12 14 17 17 21 16 13 15 12 8 8 8 7 5 3 3 3 2 3 3 3 4 4 3 5 5 5 6
8 4 6 6 5 5 4 6 6 8 6 5 8 10 7 7 7 7 10 12 16 20 19 14 13 10 8 8 8 7 3 3 3 3 2 2 3 3 2 3 4 3 5 6
7 2 7 4 6 8 5 6 3 4 5 5 5 14 5 7 11 7 9 11 14 18 16 16 16 10 9 8 7 6 3 3 3 2 2 2 2 3 3 4 4 6 6 7
9 8 6 6 8 8 8 3 3 1 3 4 4 6 8 3 8 19 9 14 14 16 20 20 18 14 8 8 8 6 2 3 3 3 2 2 5 4 4 4 6 7 6 6
7 1 6 7 3 3 5 3 5 4 1 3 6 8 5 7 10 7 6 6 10 12 16 15 14 11 8 7 7 6 3 3 3 3 3 4 6 7 6 7 7 7 7 6
1 5 2 3 4 2 3 6 4 6 3 11 4 4 12 9 11 11 10 5 9 11 14 15 18 14 10 9 8 6 3 3 4 4 4 5 6 6 7 8 7 10 8 8
6 10 10 6 7 8 7 9 8 9 5 10 2 12 10 11 9 6 5 8 8 10 14 18 17 14 12 9 8 7 4 3 4 4 5 5 6 4 6 7 8 9 9 10
8 9 2 1 2 4 6 7 3 5 3 3 7 9 8 10 10 8 8 7 10 11 14 17 14 12 10 9 8 7 4 3 3 4 5 5 5 6 7 10 9 9 11 11
4 5 2 3 3 2 4 4 5 2 3 7 12 17 15 14 10 10 8 11 9 9 12 14 15 14 8 7 7 6 4 3 3 4 4 5 6 6 8 9 11 12 12 14
6 5 3 3 10 12 4 4 1 2 6 7 4 17 5 8 11 11 11 11 11 13 14 14 14 12 10 8 7 6 3 2 3 3 5 5 6 7 9 10 11 12 13 15
8 6 9 16 1 2 2 8 12 8 9 4 4 30 1 7 9 8 9 11 8 10 12 14 14 11 9 10 8 6 4 1 3 4 5 6 7 8 9 10 12 13 14 15
11 5 8 7 2 2 8 8 7 1 3 13 8 26 6 6 9 8 10 9 9 10 10 12 12 14 12 9 7 6 4 4 4 4 3 6 7 8 10 11 12 13 15 15
17 9 13 20 13 7 7 12 15 23 13 15 34 27 45 21 25 28 16 10 11 13 14 15 14 13 11 8 8 7 5 4 3 2 3 7 8 9 10 12 13 13 13 16
10 15 18 22 28 6 8 14 17 21 29 21 33 29 37 27 31 29 18 9 9 11 14 17 17 13 11 10 7 5 3 2 1 3 5 6 9 10 10 12 13 13 14 14
2 14 12 25 19 9 9 34 17 25 26 26 28 40 28 31 28 27 27 10 11 14 17 18 17 15 12 8 7 5 3 2 4 4 6 8 10 11 12 13 13 15 15 15
8 5 3 26 4 7 9 30 31 34 26 26 29 42 31 31 26 26 19 11 13 15 16 17 19 16 11 9 7 4 3 3 2 4 6 8 10 11 12 14 13 14 15 15
10 9 9 16 5 17 31 21 11 21 31 26 30 31 31 28 25 6 10 12 14 12 14 16 14 12 10 8 7 5 3 1 3 4 5 7 9 10 13 13 13 14 13 15
19 11 12 14 18 25 28 13 9 11 26 23 20 29 30 24 6 25 12 13 13 16 16 15 13 12 11 9 8 6 3 3 4 5 6 8 9 10 13 13 14 13 14 15
20 22 20 15 17 24 34 14 7 5 24 32 24 26 23 7 7 21 8 10 9 11 14 16 15 14 12 8 8 6 4 2 3 5 7 8 9 8 11 13 14 13 13 15
5 11 24 24 25 17 25 10 6 12 43 6 20 23 15 13 13 2 8 7 11 13 17 15 14 12 11 10 8 7 5 3 2 3 5 7 8 9 9 12 13 12 13 14
19 11 10 11 15 25 7 7 22 37 35 14 8 7 12 13 6 7 10 13 15 17 16 14 14 12 11 10 8 8 6 3 1 4 5 6 7 7 8 11 13 11 12 14
20 21 20 17 11 7 12 28 35 35 30 21 6 6 12 12 10 13 11 14 15 17 16 13 14 13 10 9 8 8 6 4 4 4 3 3 7 7 9 10 12 10 10 11
16 18 20 21 17 21 21 26 27 27 29 20 8 10 15 12 15 15 16 16 16 14 15 12 14 12 10 7 6 5 5 4 4 3 4 4 6 9 9 7 7 9 9 11
20 14 22 22 25 24 26 31 30 17 7 13 9 12 19 14 15 18 15 16 15 15 14 14 13 11 11 10 8 5 4 4 3 3 4 4 4 4 9 8 7 8 9 14
17 23 19 21 30 21 33 33 23 18 24 22 18 11 13 17 19 19 17 17 19 17 15 12 12 12 11 10 9 6 4 4 3 5 4 3 4 5 6 6 10 14 18 22
Wind_Direction
7 88 213 225 201 177 164 198 241 251 242 245 248 251 273 254 218 234 219 206 211 212 192 187 183 174 162 172 166 165 161 237 201 243 329 305 275 284 254 289 324 337 332 337
39 236 201 125 143 169 164 224 262 280 300 191 267 258 262 255 243 221 218 214 214 201 189 189 183 176 178 176 175 175 198 228 215 181 228 238 262 274 271 296 315 314 313 309
175 208 115 150 170 171 211 195 235 238 327 255 298 265 243 277 267 241 221 221 214 205 197 190 189 187 179 183 186 188 205 252 234 220 251 266 267 279 256 258 275 276 288 281
230 198 172 170 214 153 243 211 233 287 6 257 27 290 253 248 276 245 234 212 210 203 199 188 187 187 187 195 179 185 201 249 238 236 254 261 237 258 246 290 279 291 280 278
241 170 177 190 214 165 224 139 166 143 219 346 238 278 261 19 264 266 251 226 216 202 192 188 188 184 191 172 181 185 201 272 265 254 256 282 284 251 265 269 279 287 274 262
248 313 172 205 89 158 126 97 61 59 71 288 222 190 220 186 207 253 247 230 207 197 199 192 178 171 181 170 170 181 206 256 280 284 300 309 284 296 307 315 310 302 298 292
276 211 179 155 115 60 105 75 319 327 351 239 165 220 251 229 220 220 250 282 221 191 186 183 180 181 177 176 181 183 207 269 291 311 311 297 277 285 288 301 300 301 297 287
182 276 177 177 194 180 176 169 167 230 230 278 345 247 263 226 252 253 241 254 234 188 191 196 187 180 177 179 179 179 197 263 300 308 299 286 293 298 288 287 293 291 286 289
173 263 106 166 140 139 183 191 171 100 113 342 239 274 281 261 275 261 257 250 234 197 196 193 181 179 177 174 179 178 196 243 279 294 295 301 284 285 292 295 291 286 291 294
222 305 170 158 136 44 175 172 79 6 252 264 267 275 250 240 236 240 237 234 232 200 199 193 184 179 174 170 160 160 184 258 290 296 287 297 294 291 291 293 291 291 292 292
144 153 223 123 212 167 135 214 121 158 160 200 278 266 203 220 189 220 223 225 214 199 199 195 186 173 169 157 162 172 181 251 287 289 276 281 297 300 296 291 293 293 292 292
202 157 232 232 211 332 222 198 174 195 228 254 139 272 197 200 207 220 225 232 217 201 193 192 183 160 164 170 174 178 185 241 253 252 278 301 300 300 296 294 296 299 295 292
178 219 249 262 87 12 221 197 222 240 128 201 176 254 106 203 242 221 233 227 217 197 181 181 173 180 176 169 174 177 179 224 234 254 288 303 300 304 301 302 299 299 295 294
161 178 195 230 228 134 185 216 218 218 225 229 233 259 267 266 277 272 261 227 216 202 191 190 186 182 170 166 173 183 194 209 247 290 304 297 309 310 301 302 301 299 300 301
173 229 226 246 255 180 210 235 215 216 227 217 250 243 254 264 264 273 278 246 205 192 193 195 189 175 171 172 173 166 177 218 300 331 314 309 311 304 306 307 301 306 309 304
220 249 246 254 254 196 249 255 238 230 236 244 253 260 259 268 279 282 277 256 211 202 205 197 186 169 172 165 155 164 178 24 9 333 326 317 312 315 309 309 316 316 313 307
174 194 199 251 189 117 265 245 239 255 237 230 242 251 275 270 266 263 267 208 216 209 199 184 180 166 157 144 143 145 77 31 350 326 313 310 314 312 318 321 321 317 312 307
204 209 225 249 90 226 251 268 203 230 250 237 246 261 259 263 273 245 223 208 211 195 182 180 167 135 125 120 105 108 89 50 348 325 311 313 320 315 323 321 323 312 310 311
229 208 234 228 230 255 286 213 159 199 266 243 219 243 254 259 338 279 212 209 205 186 178 167 144 124 123 124 125 114 105 42 3 338 327 325 328 321 323 315 316 315 312 309
226 231 234 232 238 241 248 268 151 103 269 257 219 239 241 136 237 258 163 169 150 139 141 138 128 120 118 126 120 117 101 74 340 337 331 336 329 320 311 310 310 311 303 304
169 210 223 232 242 246 253 140 138 191 250 149 207 223 224 194 216 128 111 103 127 133 133 122 120 122 122 127 132 126 137 164 246 323 332 333 326 313 301 303 304 305 307 309
211 186 212 230 247 253 174 117 209 239 257 257 204 190 192 213 150 143 143 141 136 131 131 127 124 126 132 139 141 148 165 171 75 12 346 334 309 303 310 303 298 308 309 310
233 208 215 199 203 207 193 217 224 239 242 239 182 195 204 180 181 159 152 150 146 144 140 139 133 132 141 146 156 161 149 128 71 18 347 304 304 320 310 302 305 317 315 317
221 228 226 240 231 232 223 229 235 230 232 235 203 182 181 188 169 165 154 153 148 148 146 140 136 139 144 151 135 123 127 100 79 33 20 343 340 325 315 306 313 314 320 321
219 197 221 243 245 245 249 243 237 233 230 208 187 188 196 177 182 161 158 158 155 151 146 150 150 146 148 155 140 133 118 104 99 88 43 357 333 314 307 316 310 324 323 331
220 224 218 225 228 224 241 248 245 218 217 210 195 194 199 191 173 163 161 160 155 152 148 149 145 140 150 148 137 131 122 115 102 76 41 357 328 320 318 316 317 334 348 346